Terug naar catalogus

NOAA 16 DEB

ActiefSSO
NORAD 41713·DEBRIS·🇺🇸 United States

Gelanceerd Sep 21, 2000 vanaf Vandenberg Space Force Base

Loading…

Volgende Passages (komende 24 uur)

TLE

VersSource: Space-Track

Epoch: Sep 14, 2026, 04:10 UTC

1 41713U 00055PT  26257.17417501  .00002444  00000-0  13043-2 0  9991
2 41713  98.8966 237.9828 0090592 236.0775 123.1758 14.12141933526760

Volg NOAA 16 DEB in realtime met AllMySat

Download on the App Store